iso_date,epoch_date,Year,Hour,Min,DOY,POS_DOY,Lat,Lon,BP,Ts,Ta,has_bp,has_ts,has_ta,BuoyID,Buoy_Type,Buoy_Owner,Logistics,Hemisphere
2019-05-14T16:00:02Z,1557849603,2019,16,0,134.6667,134.6667,53.84477,-166.57883,1017.11,6.67,3.91,yes,yes,yes,48039111033,Saildrone,PMEL,PMEL,North
2019-05-14T16:59:57Z,1557853197,2019,17,0,134.7083,134.7083,53.84479,-166.57885,-999.00,-999.00,4.08,yes,yes,yes,48039111033,Saildrone,PMEL,PMEL,North
2019-05-14T18:00:00Z,1557856800,2019,18,0,134.75,134.75,53.85048,-166.58159,-999.00,-999.00,4.01,yes,yes,yes,48039111033,Saildrone,PMEL,PMEL,North
2019-05-14T19:00:02Z,1557860403,2019,19,0,134.7917,134.7917,53.87652,-166.57037,1016.81,6.81,4.7,yes,yes,yes,48039111033,Saildrone,PMEL,PMEL,North
2019-05-14T19:59:57Z,1557863997,2019,20,0,134.8333,134.8333,53.90037,-166.56151,1016.69,6.81,5.44,yes,yes,yes,48039111033,Saildrone,PMEL,PMEL,North
2019-05-14T21:00:00Z,1557867600,2019,21,0,134.875,134.875,53.92042,-166.55662,1016.61,7.01,5.71,yes,yes,yes,48039111033,Saildrone,PMEL,PMEL,North
2019-05-14T22:00:02Z,1557871203,2019,22,0,134.9167,134.9167,53.94845,-166.54559,1016.46,6.73,5.75,yes,yes,yes,48039111033,Saildrone,PMEL,PMEL,North
2019-05-14T22:59:57Z,1557874797,2019,23,0,134.9583,134.9583,53.97307,-166.54885,1016.37,6.68,5.6,yes,yes,yes,48039111033,Saildrone,PMEL,PMEL,North
2019-05-15T00:00:00Z,1557878400,2019,0,0,135.0,135.0,53.98134,-166.54783,1016.18,6.8,5.88,yes,yes,yes,48039111033,Saildrone,PMEL,PMEL,North
2019-05-15T01:00:02Z,1557882003,2019,1,0,135.0417,135.0417,53.99008,-166.54692,1015.99,6.89,6.11,yes,yes,yes,48039111033,Saildrone,PMEL,PMEL,North
2019-05-15T01:59:57Z,1557885597,2019,2,0,135.0833,135.0833,54.02943,-166.54223,1015.76,6.44,5.08,yes,yes,yes,48039111033,Saildrone,PMEL,PMEL,North
2019-05-15T03:00:00Z,1557889200,2019,3,0,135.125,135.125,54.074,-166.53591,1015.42,6.26,5.63,yes,yes,yes,48039111033,Saildrone,PMEL,PMEL,North
2019-05-15T04:00:02Z,1557892803,2019,4,0,135.1667,135.1667,54.11185,-166.53082,1015.31,6.51,5.49,yes,yes,yes,48039111033,Saildrone,PMEL,PMEL,North
2019-05-15T04:59:57Z,1557896397,2019,5,0,135.2083,135.2083,54.14414,-166.52686,1015.08,6.17,5.43,yes,yes,yes,48039111033,Saildrone,PMEL,PMEL,North
2019-05-15T06:00:00Z,1557900000,2019,6,0,135.25,135.25,54.16812,-166.52412,1014.91,6.23,5.48,yes,yes,yes,48039111033,Saildrone,PMEL,PMEL,North
2019-05-15T07:00:02Z,1557903603,2019,7,0,135.2917,135.2917,54.1836,-166.52317,1014.72,6.13,5.39,yes,yes,yes,48039111033,Saildrone,PMEL,PMEL,North
2019-05-15T07:59:57Z,1557907197,2019,8,0,135.3333,135.3333,54.19335,-166.52302,1014.62,6.3,5.33,yes,yes,yes,48039111033,Saildrone,PMEL,PMEL,North
2019-05-15T09:00:00Z,1557910800,2019,9,0,135.375,135.375,54.20621,-166.52576,1014.43,6.39,5.37,yes,yes,yes,48039111033,Saildrone,PMEL,PMEL,North
2019-05-15T10:00:02Z,1557914403,2019,10,0,135.4167,135.4167,54.22198,-166.53441,1014.07,6.27,5.44,yes,yes,yes,48039111033,Saildrone,PMEL,PMEL,North
2019-05-15T10:59:57Z,1557917997,2019,11,0,135.4583,135.4583,54.22485,-166.53612,1013.67,6.29,5.35,yes,yes,yes,48039111033,Saildrone,PMEL,PMEL,North
2019-05-15T12:00:00Z,1557921600,2019,12,0,135.5,135.5,54.21857,-166.54662,1013.18,6.32,5.27,yes,yes,yes,48039111033,Saildrone,PMEL,PMEL,North
2019-05-15T13:00:02Z,1557925203,2019,13,0,135.5417,135.5417,54.2177,-166.55593,1012.53,6.33,5.12,yes,yes,yes,48039111033,Saildrone,PMEL,PMEL,North
2019-05-15T13:59:57Z,1557928797,2019,14,0,135.5833,135.5833,54.2175,-166.56257,1012.08,6.32,5.09,yes,yes,yes,48039111033,Saildrone,PMEL,PMEL,North
2019-05-15T15:00:00Z,1557932400,2019,15,0,135.625,135.625,54.21247,-166.5695,1011.52,6.3,5.13,yes,yes,yes,48039111033,Saildrone,PMEL,PMEL,North
2019-05-15T16:00:02Z,1557936003,2019,16,0,135.6667,135.6667,54.20344,-166.57821,1011.21,6.04,5.06,yes,yes,yes,48039111033,Saildrone,PMEL,PMEL,North
2019-05-15T16:59:57Z,1557939597,2019,17,0,135.7083,135.7083,54.19925,-166.58181,1010.87,6.17,5.19,yes,yes,yes,48039111033,Saildrone,PMEL,PMEL,North
2019-05-15T18:00:00Z,1557943200,2019,18,0,135.75,135.75,54.20768,-166.59409,1010.56,6.25,5.52,yes,yes,yes,48039111033,Saildrone,PMEL,PMEL,North
2019-05-15T19:00:02Z,1557946803,2019,19,0,135.7917,135.7917,54.2214,-166.6116,1010.26,6.36,5.27,yes,yes,yes,48039111033,Saildrone,PMEL,PMEL,North
2019-05-15T19:59:57Z,1557950397,2019,20,0,135.8333,135.8333,54.24043,-166.6302,1009.9,6.54,5.61,yes,yes,yes,48039111033,Saildrone,PMEL,PMEL,North
2019-05-15T21:00:00Z,1557954000,2019,21,0,135.875,135.875,54.25458,-166.6411,1009.5,6.77,5.64,yes,yes,yes,48039111033,Saildrone,PMEL,PMEL,North
2019-05-15T22:00:02Z,1557957603,2019,22,0,135.9167,135.9167,54.25754,-166.64819,1009.18,7.04,5.7,yes,yes,yes,48039111033,Saildrone,PMEL,PMEL,North
2019-05-15T22:59:57Z,1557961197,2019,23,0,135.9583,135.9583,54.26296,-166.65815,1008.81,7.23,5.7,yes,yes,yes,48039111033,Saildrone,PMEL,PMEL,North
2019-05-16T00:00:00Z,1557964800,2019,0,0,136.0,136.0,54.26853,-166.66707,1008.36,7.53,5.74,yes,yes,yes,48039111033,Saildrone,PMEL,PMEL,North
2019-05-16T01:00:02Z,1557968403,2019,1,0,136.0417,136.0417,54.27242,-166.67135,1008.08,7.53,5.85,yes,yes,yes,48039111033,Saildrone,PMEL,PMEL,North
2019-05-16T01:59:57Z,1557971997,2019,2,0,136.0833,136.0833,54.2724,-166.6695,1007.66,7.51,5.84,yes,yes,yes,48039111033,Saildrone,PMEL,PMEL,North
2019-05-16T03:00:00Z,1557975600,2019,3,0,136.125,136.125,54.26678,-166.6558,1007.49,7.64,5.85,yes,yes,yes,48039111033,Saildrone,PMEL,PMEL,North
2019-05-16T04:00:02Z,1557979203,2019,4,0,136.1667,136.1667,54.26203,-166.64379,1007.42,7.62,5.99,yes,yes,yes,48039111033,Saildrone,PMEL,PMEL,North
2019-05-16T04:59:57Z,1557982797,2019,5,0,136.2083,136.2083,54.25679,-166.63169,1007.36,7.5,6.17,yes,yes,yes,48039111033,Saildrone,PMEL,PMEL,North
2019-05-16T06:00:00Z,1557986400,2019,6,0,136.25,136.25,54.25288,-166.62607,1007.29,7.39,5.96,yes,yes,yes,48039111033,Saildrone,PMEL,PMEL,North
2019-05-16T07:00:02Z,1557990003,2019,7,0,136.2917,136.2917,54.2511,-166.62908,1007.37,7.43,5.95,yes,yes,yes,48039111033,Saildrone,PMEL,PMEL,North
2019-05-16T07:59:57Z,1557993597,2019,8,0,136.3333,136.3333,54.25019,-166.63101,1007.32,7.17,5.92,yes,yes,yes,48039111033,Saildrone,PMEL,PMEL,North
2019-05-16T09:00:00Z,1557997200,2019,9,0,136.375,136.375,54.25082,-166.63807,1007.08,7.04,5.89,yes,yes,yes,48039111033,Saildrone,PMEL,PMEL,North
2019-05-16T10:00:02Z,1558000803,2019,10,0,136.4167,136.4167,54.25242,-166.64713,1006.87,7.0,5.85,yes,yes,yes,48039111033,Saildrone,PMEL,PMEL,North
2019-05-16T10:59:57Z,1558004397,2019,11,0,136.4583,136.4583,54.25514,-166.6569,1006.71,6.95,5.85,yes,yes,yes,48039111033,Saildrone,PMEL,PMEL,North
2019-05-16T12:00:00Z,1558008000,2019,12,0,136.5,136.5,54.25764,-166.66209,1006.32,6.86,5.77,yes,yes,yes,48039111033,Saildrone,PMEL,PMEL,North
2019-05-16T13:00:02Z,1558011603,2019,13,0,136.5417,136.5417,54.2602,-166.66531,1006.03,6.9,5.72,yes,yes,yes,48039111033,Saildrone,PMEL,PMEL,North
2019-05-16T13:59:57Z,1558015197,2019,14,0,136.5833,136.5833,54.26483,-166.66342,1005.82,6.86,5.69,yes,yes,yes,48039111033,Saildrone,PMEL,PMEL,North
2019-05-16T15:00:00Z,1558018800,2019,15,0,136.625,136.625,54.27976,-166.65285,1005.65,6.67,4.66,yes,yes,yes,48039111033,Saildrone,PMEL,PMEL,North
2019-05-16T16:00:02Z,1558022403,2019,16,0,136.6667,136.6667,54.28255,-166.63624,1005.53,6.73,4.46,yes,yes,yes,48039111033,Saildrone,PMEL,PMEL,North
2019-05-16T16:59:57Z,1558025997,2019,17,0,136.7083,136.7083,54.2616,-166.60486,1005.68,6.72,4.37,yes,yes,yes,48039111033,Saildrone,PMEL,PMEL,North
2019-05-16T18:00:00Z,1558029600,2019,18,0,136.75,136.75,54.25368,-166.59704,1005.63,6.69,4.74,yes,yes,yes,48039111033,Saildrone,PMEL,PMEL,North
2019-05-16T19:00:02Z,1558033203,2019,19,0,136.7917,136.7917,54.24554,-166.58373,1005.75,6.79,4.15,yes,yes,yes,48039111033,Saildrone,PMEL,PMEL,North
2019-05-16T19:59:57Z,1558036797,2019,20,0,136.8333,136.8333,54.23805,-166.59624,1005.48,6.83,4.99,yes,yes,yes,48039111033,Saildrone,PMEL,PMEL,North
2019-05-16T21:00:00Z,1558040400,2019,21,0,136.875,136.875,54.22987,-166.66145,1005.61,6.79,4.94,yes,yes,yes,48039111033,Saildrone,PMEL,PMEL,North
2019-05-16T22:00:02Z,1558044003,2019,22,0,136.9167,136.9167,54.24854,-166.61632,1005.57,6.54,3.96,yes,yes,yes,48039111033,Saildrone,PMEL,PMEL,North
2019-05-16T22:59:57Z,1558047597,2019,23,0,136.9583,136.9583,54.22844,-166.66583,1005.54,6.88,4.85,yes,yes,yes,48039111033,Saildrone,PMEL,PMEL,North
2019-05-17T00:00:00Z,1558051200,2019,0,0,137.0,137.0,54.24056,-166.6362,1005.44,6.64,4.61,yes,yes,yes,48039111033,Saildrone,PMEL,PMEL,North
2019-05-17T01:00:02Z,1558054803,2019,1,0,137.0417,137.0417,54.27322,-166.60664,1005.33,6.78,4.69,yes,yes,yes,48039111033,Saildrone,PMEL,PMEL,North
2019-05-17T01:59:57Z,1558058397,2019,2,0,137.0833,137.0833,54.30495,-166.5746,1005.05,6.76,4.85,yes,yes,yes,48039111033,Saildrone,PMEL,PMEL,North
2019-05-17T03:00:00Z,1558062000,2019,3,0,137.125,137.125,54.33952,-166.53974,1004.59,6.59,5.01,yes,yes,yes,48039111033,Saildrone,PMEL,PMEL,North
2019-05-17T04:00:02Z,1558065603,2019,4,0,137.1667,137.1667,54.37896,-166.4999,1004.22,6.49,5.32,yes,yes,yes,48039111033,Saildrone,PMEL,PMEL,North
2019-05-17T04:59:57Z,1558069197,2019,5,0,137.2083,137.2083,54.42255,-166.45572,1004.06,6.89,5.33,yes,yes,yes,48039111033,Saildrone,PMEL,PMEL,North
2019-05-17T06:00:00Z,1558072800,2019,6,0,137.25,137.25,54.46308,-166.41455,1003.95,6.86,5.28,yes,yes,yes,48039111033,Saildrone,PMEL,PMEL,North
2019-05-17T07:00:02Z,1558076403,2019,7,0,137.2917,137.2917,54.50168,-166.37531,1004.17,6.74,4.71,yes,yes,yes,48039111033,Saildrone,PMEL,PMEL,North
2019-05-17T07:59:57Z,1558079997,2019,8,0,137.3333,137.3333,54.5412,-166.33499,1004.39,6.98,4.52,yes,yes,yes,48039111033,Saildrone,PMEL,PMEL,North
2019-05-17T09:00:00Z,1558083600,2019,9,0,137.375,137.375,54.57839,-166.29699,1004.15,6.36,4.82,yes,yes,yes,48039111033,Saildrone,PMEL,PMEL,North
2019-05-17T10:00:02Z,1558087203,2019,10,0,137.4167,137.4167,54.58959,-166.28575,1004.16,6.62,4.1,yes,yes,yes,48039111033,Saildrone,PMEL,PMEL,North
2019-05-17T10:59:57Z,1558090797,2019,11,0,137.4583,137.4583,54.61757,-166.25746,1003.83,6.78,4.71,yes,yes,yes,48039111033,Saildrone,PMEL,PMEL,North
2019-05-17T12:00:00Z,1558094400,2019,12,0,137.5,137.5,54.65821,-166.21714,1003.76,6.66,4.66,yes,yes,yes,48039111033,Saildrone,PMEL,PMEL,North
2019-05-17T13:00:02Z,1558098003,2019,13,0,137.5417,137.5417,54.70266,-166.17292,1003.55,6.66,4.61,yes,yes,yes,48039111033,Saildrone,PMEL,PMEL,North
2019-05-17T13:59:57Z,1558101597,2019,14,0,137.5833,137.5833,54.73905,-166.13665,1003.59,6.54,4.04,yes,yes,yes,48039111033,Saildrone,PMEL,PMEL,North
2019-05-17T15:00:00Z,1558105200,2019,15,0,137.625,137.625,54.76737,-166.10783,1003.5,6.45,4.13,yes,yes,yes,48039111033,Saildrone,PMEL,PMEL,North
2019-05-17T16:00:02Z,1558108803,2019,16,0,137.6667,137.6667,54.787,-166.07912,1003.82,6.54,4.02,yes,yes,yes,48039111033,Saildrone,PMEL,PMEL,North
2019-05-17T16:59:57Z,1558112397,2019,17,0,137.7083,137.7083,54.80097,-166.05288,1004.1,6.35,4.42,yes,yes,yes,48039111033,Saildrone,PMEL,PMEL,North
2019-05-17T18:00:00Z,1558116000,2019,18,0,137.75,137.75,54.8186,-166.04413,1004.8,6.46,4.88,yes,yes,yes,48039111033,Saildrone,PMEL,PMEL,North
2019-05-17T19:00:02Z,1558119603,2019,19,0,137.7917,137.7917,54.82811,-166.04081,1005.11,6.38,4.4,yes,yes,yes,48039111033,Saildrone,PMEL,PMEL,North
2019-05-17T19:59:57Z,1558123197,2019,20,0,137.8333,137.8333,54.83931,-166.07745,1005.29,6.41,4.78,yes,yes,yes,48039111033,Saildrone,PMEL,PMEL,North
2019-05-17T21:00:00Z,1558126800,2019,21,0,137.875,137.875,54.86821,-166.08621,1005.81,6.52,5.09,yes,yes,yes,48039111033,Saildrone,PMEL,PMEL,North
2019-05-17T22:00:02Z,1558130403,2019,22,0,137.9167,137.9167,54.8951,-166.11588,1006.13,6.86,5.45,yes,yes,yes,48039111033,Saildrone,PMEL,PMEL,North
2019-05-17T22:59:57Z,1558133997,2019,23,0,137.9583,137.9583,54.92898,-166.14714,1006.48,6.97,5.19,yes,yes,yes,48039111033,Saildrone,PMEL,PMEL,North
2019-05-18T00:00:00Z,1558137600,2019,0,0,138.0,138.0,54.96306,-166.17609,1006.64,6.97,5.05,yes,yes,yes,48039111033,Saildrone,PMEL,PMEL,North
2019-05-18T01:00:02Z,1558141203,2019,1,0,138.0417,138.0417,55.00157,-166.21116,1006.9,6.86,4.8,yes,yes,yes,48039111033,Saildrone,PMEL,PMEL,North
2019-05-18T01:59:57Z,1558144797,2019,2,0,138.0833,138.0833,55.03546,-166.23933,1006.85,6.52,4.95,yes,yes,yes,48039111033,Saildrone,PMEL,PMEL,North
2019-05-18T03:00:00Z,1558148400,2019,3,0,138.125,138.125,55.06304,-166.26591,1006.87,6.44,5.32,yes,yes,yes,48039111033,Saildrone,PMEL,PMEL,North
2019-05-18T04:00:02Z,1558152003,2019,4,0,138.1667,138.1667,55.08491,-166.30025,1006.98,6.37,5.07,yes,yes,yes,48039111033,Saildrone,PMEL,PMEL,North
2019-05-18T04:59:57Z,1558155597,2019,5,0,138.2083,138.2083,55.10802,-166.31973,1007.07,6.26,4.71,yes,yes,yes,48039111033,Saildrone,PMEL,PMEL,North
2019-05-18T06:00:00Z,1558159200,2019,6,0,138.25,138.25,55.13228,-166.33933,1007.37,6.42,4.79,yes,yes,yes,48039111033,Saildrone,PMEL,PMEL,North
2019-05-18T07:00:02Z,1558162803,2019,7,0,138.2917,138.2917,55.15133,-166.35767,1007.6,6.41,4.63,yes,yes,yes,48039111033,Saildrone,PMEL,PMEL,North
2019-05-18T07:59:57Z,1558166397,2019,8,0,138.3333,138.3333,55.17226,-166.38075,1007.85,6.46,4.48,yes,yes,yes,48039111033,Saildrone,PMEL,PMEL,North
2019-05-18T09:00:00Z,1558170000,2019,9,0,138.375,138.375,55.20117,-166.39237,1007.89,6.46,4.62,yes,yes,yes,48039111033,Saildrone,PMEL,PMEL,North
2019-05-18T10:00:02Z,1558173603,2019,10,0,138.4167,138.4167,55.22114,-166.41468,1007.92,6.54,4.75,yes,yes,yes,48039111033,Saildrone,PMEL,PMEL,North
2019-05-18T10:59:57Z,1558177197,2019,11,0,138.4583,138.4583,55.24429,-166.44221,1007.83,6.9,4.87,yes,yes,yes,48039111033,Saildrone,PMEL,PMEL,North
2019-05-18T12:00:00Z,1558180800,2019,12,0,138.5,138.5,55.27933,-166.46509,1007.92,6.82,4.6,yes,yes,yes,48039111033,Saildrone,PMEL,PMEL,North
2019-05-18T13:00:02Z,1558184403,2019,13,0,138.5417,138.5417,55.30399,-166.49722,1007.77,6.6,3.97,yes,yes,yes,48039111033,Saildrone,PMEL,PMEL,North
2019-05-18T13:59:57Z,1558187997,2019,14,0,138.5833,138.5833,55.34511,-166.52108,1007.65,6.55,4.14,yes,yes,yes,48039111033,Saildrone,PMEL,PMEL,North
2019-05-18T15:00:00Z,1558191600,2019,15,0,138.625,138.625,55.37939,-166.53294,1007.35,6.56,4.48,yes,yes,yes,48039111033,Saildrone,PMEL,PMEL,North
2019-05-18T16:00:02Z,1558195203,2019,16,0,138.6667,138.6667,55.38176,-166.55617,1007.41,6.54,4.59,yes,yes,yes,48039111033,Saildrone,PMEL,PMEL,North
2019-05-18T16:59:57Z,1558198797,2019,17,0,138.7083,138.7083,55.4012,-166.57606,1007.4,6.6,4.93,yes,yes,yes,48039111033,Saildrone,PMEL,PMEL,North
2019-05-18T18:00:00Z,1558202400,2019,18,0,138.75,138.75,55.41855,-166.60108,1007.49,6.51,4.38,yes,yes,yes,48039111033,Saildrone,PMEL,PMEL,North
2019-05-18T19:00:02Z,1558206003,2019,19,0,138.7917,138.7917,55.43624,-166.61,1007.67,6.53,3.93,yes,yes,yes,48039111033,Saildrone,PMEL,PMEL,North
2019-05-18T19:59:57Z,1558209597,2019,20,0,138.8333,138.8333,55.45073,-166.62502,1007.96,6.55,3.94,yes,yes,yes,48039111033,Saildrone,PMEL,PMEL,North
2019-05-18T21:00:00Z,1558213200,2019,21,0,138.875,138.875,55.46722,-166.65354,1008.13,6.62,4.01,yes,yes,yes,48039111033,Saildrone,PMEL,PMEL,North
2019-05-18T22:00:02Z,1558216803,2019,22,0,138.9167,138.9167,55.49067,-166.67319,1008.05,6.6,3.82,yes,yes,yes,48039111033,Saildrone,PMEL,PMEL,North
2019-05-18T22:59:57Z,1558220397,2019,23,0,138.9583,138.9583,55.51465,-166.68818,1008.11,6.61,4.03,yes,yes,yes,48039111033,Saildrone,PMEL,PMEL,North
2019-05-19T00:00:00Z,1558224000,2019,0,0,139.0,139.0,55.53766,-166.70566,1008.01,6.59,4.22,yes,yes,yes,48039111033,Saildrone,PMEL,PMEL,North
2019-05-19T01:00:02Z,1558227603,2019,1,0,139.0417,139.0417,55.56496,-166.72922,1007.62,6.55,4.19,yes,yes,yes,48039111033,Saildrone,PMEL,PMEL,North
2019-05-19T01:59:57Z,1558231197,2019,2,0,139.0833,139.0833,55.58308,-166.74094,1007.7,6.61,4.31,yes,yes,yes,48039111033,Saildrone,PMEL,PMEL,North
2019-05-19T03:00:00Z,1558234800,2019,3,0,139.125,139.125,55.59237,-166.73343,1007.32,6.71,3.91,yes,yes,yes,48039111033,Saildrone,PMEL,PMEL,North
2019-05-19T04:00:02Z,1558238403,2019,4,0,139.1667,139.1667,55.59273,-166.7387,1006.88,6.68,3.69,yes,yes,yes,48039111033,Saildrone,PMEL,PMEL,North
2019-05-19T04:59:57Z,1558241997,2019,5,0,139.2083,139.2083,55.59241,-166.73851,1006.92,6.7,4.11,yes,yes,yes,48039111033,Saildrone,PMEL,PMEL,North
2019-05-19T06:00:00Z,1558245600,2019,6,0,139.25,139.25,55.58826,-166.73491,1006.92,6.69,4.1,yes,yes,yes,48039111033,Saildrone,PMEL,PMEL,North
2019-05-19T07:00:02Z,1558249203,2019,7,0,139.2917,139.2917,55.58828,-166.73614,1006.96,6.69,4.0,yes,yes,yes,48039111033,Saildrone,PMEL,PMEL,North
2019-05-19T07:59:57Z,1558252797,2019,8,0,139.3333,139.3333,55.5892,-166.74135,1007.21,6.68,4.31,yes,yes,yes,48039111033,Saildrone,PMEL,PMEL,North
2019-05-19T09:00:00Z,1558256400,2019,9,0,139.375,139.375,55.5906,-166.74638,1007.24,6.66,4.25,yes,yes,yes,48039111033,Saildrone,PMEL,PMEL,North
2019-05-19T10:00:02Z,1558260003,2019,10,0,139.4167,139.4167,55.59327,-166.75223,1007.22,6.66,4.35,yes,yes,yes,48039111033,Saildrone,PMEL,PMEL,North
2019-05-19T10:59:57Z,1558263597,2019,11,0,139.4583,139.4583,55.6006,-166.76141,1007.04,6.61,4.51,yes,yes,yes,48039111033,Saildrone,PMEL,PMEL,North
2019-05-19T12:00:00Z,1558267200,2019,12,0,139.5,139.5,55.60884,-166.77224,1006.97,6.6,4.51,yes,yes,yes,48039111033,Saildrone,PMEL,PMEL,North
2019-05-19T13:00:02Z,1558270803,2019,13,0,139.5417,139.5417,55.61928,-166.78026,1006.65,6.58,4.58,yes,yes,yes,48039111033,Saildrone,PMEL,PMEL,North
2019-05-19T13:59:57Z,1558274397,2019,14,0,139.5833,139.5833,55.63128,-166.78865,1006.63,6.58,4.58,yes,yes,yes,48039111033,Saildrone,PMEL,PMEL,North
2019-05-19T15:00:00Z,1558278000,2019,15,0,139.625,139.625,55.64342,-166.78952,1006.7,6.58,4.66,yes,yes,yes,48039111033,Saildrone,PMEL,PMEL,North
2019-05-19T16:00:02Z,1558281603,2019,16,0,139.6667,139.6667,55.6498,-166.78784,1006.82,6.57,4.66,yes,yes,yes,48039111033,Saildrone,PMEL,PMEL,North
2019-05-19T16:59:57Z,1558285197,2019,17,0,139.7083,139.7083,55.65766,-166.78769,1007.17,6.58,4.72,yes,yes,yes,48039111033,Saildrone,PMEL,PMEL,North
2019-05-19T18:00:00Z,1558288800,2019,18,0,139.75,139.75,55.66384,-166.78911,1007.55,6.6,4.76,yes,yes,yes,48039111033,Saildrone,PMEL,PMEL,North
2019-05-19T19:00:02Z,1558292403,2019,19,0,139.7917,139.7917,55.66756,-166.79247,1007.66,6.57,5.02,yes,yes,yes,48039111033,Saildrone,PMEL,PMEL,North
2019-05-19T19:59:57Z,1558295997,2019,20,0,139.8333,139.8333,55.67087,-166.79725,1007.41,6.59,5.55,yes,yes,yes,48039111033,Saildrone,PMEL,PMEL,North
2019-05-19T21:00:00Z,1558299600,2019,21,0,139.875,139.875,55.67446,-166.81144,1007.31,6.74,5.71,yes,yes,yes,48039111033,Saildrone,PMEL,PMEL,North
2019-05-19T22:00:02Z,1558303203,2019,22,0,139.9167,139.9167,55.67839,-166.82939,1007.15,6.93,5.9,yes,yes,yes,48039111033,Saildrone,PMEL,PMEL,North
2019-05-19T22:59:57Z,1558306797,2019,23,0,139.9583,139.9583,55.68963,-166.8468,1007.0,7.09,5.66,yes,yes,yes,48039111033,Saildrone,PMEL,PMEL,North
2019-05-20T00:00:00Z,1558310400,2019,0,0,140.0,140.0,55.70493,-166.85828,1006.81,7.31,5.72,yes,yes,yes,48039111033,Saildrone,PMEL,PMEL,North
2019-05-20T01:00:02Z,1558314003,2019,1,0,140.0417,140.0417,55.72178,-166.86789,1006.65,7.64,6.2,yes,yes,yes,48039111033,Saildrone,PMEL,PMEL,North
2019-05-20T01:59:57Z,1558317597,2019,2,0,140.0833,140.0833,55.73587,-166.86499,1006.51,7.97,5.73,yes,yes,yes,48039111033,Saildrone,PMEL,PMEL,North
2019-05-20T03:00:00Z,1558321200,2019,3,0,140.125,140.125,55.75567,-166.86756,1006.28,7.44,5.67,yes,yes,yes,48039111033,Saildrone,PMEL,PMEL,North
2019-05-20T04:00:02Z,1558324803,2019,4,0,140.1667,140.1667,55.77103,-166.86726,1006.15,7.26,5.54,yes,yes,yes,48039111033,Saildrone,PMEL,PMEL,North
2019-05-20T04:59:57Z,1558328397,2019,5,0,140.2083,140.2083,55.77745,-166.87613,1006.16,7.0,4.88,yes,yes,yes,48039111033,Saildrone,PMEL,PMEL,North
2019-05-20T06:00:00Z,1558332000,2019,6,0,140.25,140.25,55.77084,-166.8934,1006.09,6.84,4.81,yes,yes,yes,48039111033,Saildrone,PMEL,PMEL,North
2019-05-20T07:00:02Z,1558335603,2019,7,0,140.2917,140.2917,55.75761,-166.93404,1006.35,6.66,4.77,yes,yes,yes,48039111033,Saildrone,PMEL,PMEL,North
2019-05-20T07:59:57Z,1558339197,2019,8,0,140.3333,140.3333,55.77992,-166.94479,1006.54,6.77,4.68,yes,yes,yes,48039111033,Saildrone,PMEL,PMEL,North
2019-05-20T09:00:00Z,1558342800,2019,9,0,140.375,140.375,55.80329,-166.967,1006.5,6.6,4.45,yes,yes,yes,48039111033,Saildrone,PMEL,PMEL,North
2019-05-20T10:00:02Z,1558346403,2019,10,0,140.4167,140.4167,55.82668,-166.99352,1006.22,6.59,4.37,yes,yes,yes,48039111033,Saildrone,PMEL,PMEL,North
2019-05-20T10:59:57Z,1558349997,2019,11,0,140.4583,140.4583,55.84989,-167.01816,1006.02,6.53,4.45,yes,yes,yes,48039111033,Saildrone,PMEL,PMEL,North
2019-05-20T12:00:00Z,1558353600,2019,12,0,140.5,140.5,55.87556,-167.04424,1005.97,6.89,4.29,yes,yes,yes,48039111033,Saildrone,PMEL,PMEL,North
2019-05-20T13:00:02Z,1558357203,2019,13,0,140.5417,140.5417,55.90995,-167.0759,1005.76,6.71,4.32,yes,yes,yes,48039111033,Saildrone,PMEL,PMEL,North
2019-05-20T13:59:57Z,1558360797,2019,14,0,140.5833,140.5833,55.93715,-167.10179,1005.76,6.62,4.57,yes,yes,yes,48039111033,Saildrone,PMEL,PMEL,North
2019-05-20T15:00:00Z,1558364400,2019,15,0,140.625,140.625,55.96645,-167.12756,1005.75,6.58,4.4,yes,yes,yes,48039111033,Saildrone,PMEL,PMEL,North
2019-05-20T16:00:02Z,1558368003,2019,16,0,140.6667,140.6667,55.99016,-167.14267,1005.75,6.53,4.42,yes,yes,yes,48039111033,Saildrone,PMEL,PMEL,North
2019-05-20T16:59:57Z,1558371597,2019,17,0,140.7083,140.7083,56.00892,-167.16649,1005.7,6.71,4.15,yes,yes,yes,48039111033,Saildrone,PMEL,PMEL,North
2019-05-20T18:00:00Z,1558375200,2019,18,0,140.75,140.75,56.04212,-167.197,1005.84,6.86,4.47,yes,yes,yes,48039111033,Saildrone,PMEL,PMEL,North
2019-05-20T19:00:02Z,1558378803,2019,19,0,140.7917,140.7917,56.06898,-167.22172,1005.76,6.76,4.52,yes,yes,yes,48039111033,Saildrone,PMEL,PMEL,North
2019-05-20T19:59:57Z,1558382397,2019,20,0,140.8333,140.8333,56.09564,-167.24628,1005.9,6.63,4.51,yes,yes,yes,48039111033,Saildrone,PMEL,PMEL,North
2019-05-20T21:00:00Z,1558386000,2019,21,0,140.875,140.875,56.12081,-167.26953,1006.01,6.68,4.65,yes,yes,yes,48039111033,Saildrone,PMEL,PMEL,North
2019-05-20T22:00:02Z,1558389603,2019,22,0,140.9167,140.9167,56.14303,-167.29007,1006.26,6.95,4.43,yes,yes,yes,48039111033,Saildrone,PMEL,PMEL,North
2019-05-20T22:59:57Z,1558393197,2019,23,0,140.9583,140.9583,56.16383,-167.30972,1006.26,6.9,4.47,yes,yes,yes,48039111033,Saildrone,PMEL,PMEL,North
2019-05-21T00:00:00Z,1558396800,2019,0,0,141.0,141.0,56.18498,-167.32895,1006.39,6.76,4.46,yes,yes,yes,48039111033,Saildrone,PMEL,PMEL,North
2019-05-21T01:00:02Z,1558400403,2019,1,0,141.0417,141.0417,56.20849,-167.35075,1006.57,6.96,4.55,yes,yes,yes,48039111033,Saildrone,PMEL,PMEL,North
2019-05-21T01:59:57Z,1558403997,2019,2,0,141.0833,141.0833,56.23369,-167.37414,1006.51,7.07,4.73,yes,yes,yes,48039111033,Saildrone,PMEL,PMEL,North
2019-05-21T03:00:00Z,1558407600,2019,3,0,141.125,141.125,56.25749,-167.39633,1006.54,6.99,4.79,yes,yes,yes,48039111033,Saildrone,PMEL,PMEL,North
2019-05-21T04:00:02Z,1558411203,2019,4,0,141.1667,141.1667,56.27428,-167.41189,1006.52,7.0,5.27,yes,yes,yes,48039111033,Saildrone,PMEL,PMEL,North
2019-05-21T04:59:57Z,1558414797,2019,5,0,141.2083,141.2083,56.28428,-167.41396,1006.73,7.08,5.35,yes,yes,yes,48039111033,Saildrone,PMEL,PMEL,North
2019-05-21T06:00:00Z,1558418400,2019,6,0,141.25,141.25,56.29256,-167.4135,1007.12,6.96,5.15,yes,yes,yes,48039111033,Saildrone,PMEL,PMEL,North
2019-05-21T07:00:02Z,1558422003,2019,7,0,141.2917,141.2917,56.28986,-167.42446,1007.5,7.0,5.1,yes,yes,yes,48039111033,Saildrone,PMEL,PMEL,North
2019-05-21T07:59:57Z,1558425597,2019,8,0,141.3333,141.3333,56.30301,-167.43901,1007.96,6.86,5.64,yes,yes,yes,48039111033,Saildrone,PMEL,PMEL,North
2019-05-21T09:00:00Z,1558429200,2019,9,0,141.375,141.375,56.31722,-167.46268,1008.37,6.77,5.01,yes,yes,yes,48039111033,Saildrone,PMEL,PMEL,North
2019-05-21T10:00:02Z,1558432803,2019,10,0,141.4167,141.4167,56.32154,-167.48655,1008.54,6.61,5.85,yes,yes,yes,48039111033,Saildrone,PMEL,PMEL,North